GW3733 Weather Reports


time (UTC)temp
F
wind
direction
speed
knots
gust
knots
rain 1hr
in
rain 24hr
in
rain mn
in
humidity
%
barometer
mb
20260831030419 69 344 0.0 0.0 0.00 0.00 0.00 99 1016.6
20260831025918 69 344 0.0 0.0 0.00 0.00 0.00 99 1016.7
20260831025412 69 344 0.0 0.0 0.00 0.00 0.00 99 1016.7
20260831024908 69 344 0.0 0.0 0.00 0.00 0.00 99 1016.6
20260831024407 69 344 0.0 0.0 0.00 0.00 0.00 99 1016.7
20260831023907 69 344 0.0 0.0 0.00 0.00 0.00 99 1016.4
20260831023405 69 344 0.0 0.0 0.00 0.00 0.00 99 1016.4
20260831022901 69 344 0.0 0.0 0.00 0.00 0.00 99 1016.4
20260831022400 69 344 0.0 0.0 0.00 0.00 0.00 99 1016.6
20260831021855 69 345 0.0 0.0 0.00 0.00 0.00 99 1016.4
20260831021354 69 345 0.0 0.0 0.00 0.00 0.00 99 1016.5
20260831020850 69 345 0.0 0.0 0.00 0.00 0.00 99 1016.7
20260831020344 69 345 0.0 0.0 0.00 0.00 0.00 99 1016.6
20260831015840 70 345 0.0 0.0 0.00 0.00 0.00 99 1016.6
20260831015336 70 345 0.0 0.0 0.00 0.00 0.00 99 1016.7
20260831014835 70 345 0.0 0.0 0.00 0.00 0.00 99 1016.7
20260831014330 70 345 0.0 0.0 0.00 0.00 0.00 99 1016.7
20260831013827 70 345 0.0 0.0 0.00 0.00 0.00 99 1016.7
20260831013326 70 345 0.0 0.0 0.00 0.00 0.00 99 1016.6
20260831012820 70 345 0.0 0.0 0.00 0.00 0.00 99 1016.7
20260831012317 69 345 0.0 0.0 0.00 0.00 0.00 99 1016.7
20260831011815 69 345 0.0 0.0 0.00 0.00 0.00 99 1016.5
20260831011310 70 345 0.0 0.0 0.00 0.00 0.00 99 1016.6
20260831010806 70 345 0.0 0.0 0.00 0.00 0.00 99 1016.3
20260831010301 70 345 0.0 0.0 0.00 0.00 0.00 99 1016.6
20260831005757 70 345 0.0 0.0 0.00 0.00 0.00 99 1016.5
20260831005252 70 345 0.0 0.0 0.00 0.00 0.00 99 1016.4
20260831004747 70 346 0.0 0.0 0.00 0.00 0.00 99 1016.1
20260831004243 70 345 0.0 0.0 0.00 0.00 0.00 99 1016.0
20260831003738 70 345 0.0 0.0 0.00 0.00 0.00 99 1015.9
20260831003235 70 345 0.0 0.0 0.00 0.00 0.00 99 1015.9
20260831002734 71 346 0.0 0.0 0.00 0.00 0.00 99 1015.8
20260831002233 71 346 0.0 0.0 0.00 0.00 0.00 98 1015.8
20260831001729 71 346 0.0 0.0 0.00 0.00 0.00 98 1015.6
20260831001224 71 346 0.0 0.0 0.00 0.00 0.00 98 1015.7
20260831000721 72 346 0.0 0.0 0.00 0.00 0.00 98 1015.5
20260831000218 71 346 0.0 0.0 0.00 0.00 0.00 97 1015.4
20260830235715 72 344 0.0 0.0 0.00 0.00 0.00 97 1015.5
20260830235210 72 344 0.0 0.0 0.00 0.00 0.00 97 1015.3
20260830234704 72 344 0.0 0.0 0.00 0.00 0.00 97 1015.1
20260830234201 72 344 0.0 0.0 0.00 0.00 0.00 96 1015.2
20260830233656 73 344 0.0 0.0 0.00 0.00 0.00 95 1015.3
20260830233151 73 344 0.0 0.0 0.00 0.00 0.00 95 1015.5
20260830232647 73 344 0.0 0.0 0.00 0.00 0.00 95 1015.4
20260830232142 74 345 0.0 0.0 0.00 0.00 0.00 94 1015.5
20260830231638 74 345 0.0 0.0 0.00 0.00 0.00 93 1015.5
20260830231132 75 344 0.0 0.0 0.00 0.00 0.00 92 1015.6
20260830230628 75 344 0.0 0.0 0.00 0.00 0.00 90 1015.4
20260830230127 76 344 0.0 0.0 0.00 0.00 0.00 89 1015.5
20260830225622 77 344 0.0 0.0 0.00 0.00 0.00 87 1015.6
20260830225117 77 344 0.0 0.0 0.00 0.00 0.00 85 1015.6
20260830224616 77 344 0.0 0.0 0.00 0.00 0.00 83 1015.6
20260830224112 78 344 0.0 0.0 0.00 0.00 0.00 81 1015.7
20260830223609 79 344 0.0 0.0 0.00 0.00 0.00 78 1015.6
20260830223108 79 344 0.0 0.0 0.00 0.00 0.00 78 1015.6
20260830222603 80 344 0.0 0.0 0.00 0.00 0.00 77 1015.5
20260830222059 80 344 0.0 0.0 0.00 0.00 0.00 76 1015.3
20260830221554 80 344 0.0 0.0 0.00 0.00 0.00 73 1015.4
20260830221050 81 343 0.0 0.0 0.00 0.00 0.00 74 1015.3
20260830220545 81 336 0.0 0.0 0.00 0.00 0.00 69 1015.3
20260830220043 81 349 0.0 0.0 0.00 0.00 0.00 69 1015.3
20260830215537 81 348 0.0 0.0 0.00 0.00 0.00 70 1015.5
20260830215032 80 344 0.0 0.0 0.00 0.00 0.00 75 1015.4
20260830214528 80 344 0.0 0.0 0.00 0.00 0.00 84 1015.5
20260830214027 81 343 0.0 0.0 0.00 0.00 0.00 83 1015.4
20260830213527 81 346 0.0 0.0 0.00 0.00 0.00 78 1015.4
20260830213023 81 321 0.0 0.0 0.00 0.00 0.00 81 1015.2
20260830212519 81 334 0.0 0.0 0.00 0.00 0.00 82 1015.2
20260830212014 80 344 0.0 0.0 0.00 0.00 0.00 82 1015.0
20260830211508 80 345 0.0 0.0 0.00 0.00 0.00 82 1015.0
20260830211003 80 354 0.0 0.0 0.00 0.00 0.00 81 1015.0
20260830210503 79 353 0.0 0.0 0.00 0.00 0.00 84 1014.9
20260830210001 78 354 0.0 0.0 0.00 0.00 0.00 83 1015.2
20260830205500 78 356 0.0 0.0 0.00 0.00 0.00 83 1015.1
20260830204955 79 5 0.0 0.0 0.00 0.00 0.00 80 1015.1
20260830204454 79 10 0.0 0.0 0.00 0.00 0.00 82 1015.2
20260830203949 79 346 0.0 0.0 0.00 0.00 0.00 82 1015.5
20260830203446 79 356 0.0 0.0 0.00 0.00 0.00 82 1015.4
20260830202945 79 14 0.0 0.0 0.00 0.00 0.00 80 1015.5
20260830202440 79 331 0.0 0.0 0.00 0.00 0.00 79 1015.4
20260830201931 80 29 0.0 0.0 0.00 0.00 0.00 77 1015.4
20260830201429 80 304 0.0 0.0 0.00 0.00 0.00 74 1015.5
20260830200925 80 46 0.0 0.0 0.00 0.00 0.00 68 1015.5
20260830200425 80 324 0.0 0.0 0.00 0.00 0.00 74 1015.5
20260830195920 80 322 0.0 0.0 0.00 0.00 0.00 79 1015.6
20260830195415 81 342 0.0 0.0 0.00 0.00 0.00 74 1015.5
20260830194913 83 357 0.0 0.0 0.00 0.00 0.00 73 1015.4
20260830194412 86 15 0.0 0.0 0.00 0.00 0.00 66 1015.3
20260830193907 87 8 0.0 0.0 0.00 0.00 0.00 61 1015.5
20260830193406 86 7 0.0 0.0 0.00 0.00 0.00 60 1015.6
20260830192902 87 8 0.0 0.0 0.00 0.00 0.00 58 1015.6
20260830192401 89 318 0.0 0.0 0.00 0.00 0.00 55 1015.5
20260830191857 88 317 0.0 0.0 0.00 0.00 0.00 58 1015.5
20260830191357 89 313 0.0 0.0 0.00 0.00 0.00 59 1015.7
20260830190853 88 312 0.0 0.0 0.00 0.00 0.00 63 1015.6
20260830190348 87 329 0.0 0.0 0.00 0.00 0.00 63 1015.7
20260830185846 88 349 0.0 0.0 0.00 0.00 0.00 61 1015.8
20260830185342 87 2 0.0 0.0 0.00 0.00 0.00 61 1015.8
20260830184837 88 342 0.0 0.0 0.00 0.00 0.00 63 1015.8
20260830184336 88 11 0.0 0.0 0.00 0.00 0.00 62 1016.1
20260830183830 87 13 0.0 0.0 0.00 0.00 0.00 60 1016.2
20260830183325 88 4 0.0 0.0 0.00 0.00 0.00 59 1016.3
20260830182821 87 351 0.0 0.0 0.00 0.00 0.00 62 1016.6
20260830182316 86 6 0.0 0.0 0.00 0.00 0.00 61 1016.6
20260830181812 86 352 0.0 0.0 0.00 0.00 0.00 67 1016.5
20260830181307 85 340 0.0 0.0 0.00 0.00 0.00 66 1016.6
20260830180807 82 337 0.0 0.0 0.00 0.00 0.00 69 1017.0
20260830180302 82 358 0.0 0.0 0.00 0.00 0.00 70 1016.9
20260830175800 84 339 0.0 0.0 0.00 0.00 0.00 68 1016.9
20260830175256 84 349 0.0 0.0 0.00 0.00 0.00 63 1016.7
20260830174756 86 349 0.0 0.0 0.00 0.00 0.00 62 1017.0
20260830174252 86 349 0.0 0.0 0.00 0.00 0.00 64 1016.7
20260830173751 87 348 0.0 0.0 0.00 0.00 0.00 60 1016.7
20260830173247 88 326 0.0 0.0 0.00 0.00 0.00 64 1016.7
20260830172743 88 334 0.0 0.0 0.00 0.00 0.00 60 1016.9
20260830172240 87 17 0.0 0.0 0.00 0.00 0.00 59 1017.1
20260830171736 88 8 0.0 0.0 0.00 0.00 0.00 62 1017.0
20260830171235 88 317 0.0 0.0 0.00 0.00 0.00 59 1017.0
20260830170730 87 69 0.0 0.0 0.00 0.00 0.00 61 1017.1
20260830170229 87 59 0.0 0.0 0.00 0.00 0.00 63 1017.1
20260830165729 86 289 0.0 0.0 0.00 0.00 0.00 65 1017.1
20260830165225 86 43 0.0 0.0 0.00 0.00 0.00 69 1017.3
20260830164721 83 336 0.0 0.0 0.00 0.00 0.00 75 1017.4
20260830164217 82 337 0.0 0.0 0.00 0.00 0.00 75 1017.3
20260830163713 82 331 0.0 0.0 0.00 0.00 0.00 78 1017.5
20260830163208 82 344 0.0 0.0 0.00 0.00 0.00 76 1017.6
20260830162703 83 357 0.0 0.0 0.00 0.00 0.00 74 1017.4
20260830162159 84 334 0.0 0.0 0.00 0.00 0.00 73 1017.5
20260830161654 85 3 0.0 0.0 0.00 0.00 0.00 77 1017.6
20260830161148 82 25 0.0 0.0 0.00 0.00 0.00 71 1017.5
20260830160645 80 359 0.0 0.0 0.00 0.00 0.00 83 1017.6
20260830160139 80 349 0.0 0.0 0.00 0.00 0.00 82 1017.6
20260830155636 82 355 0.0 0.0 0.00 0.00 0.00 75 1017.5
20260830155131 82 344 0.0 0.0 0.00 0.00 0.00 73 1017.6
20260830154626 84 266 0.0 0.0 0.00 0.00 0.00 75 1017.7
20260830154122 85 194 0.0 0.0 0.00 0.00 0.00 71 1017.7
20260830153618 85 357 0.0 0.0 0.00 0.00 0.00 71 1017.8
20260830153118 84 30 0.0 0.0 0.00 0.00 0.00 69 1017.6
20260830152617 85 343 0.0 0.0 0.00 0.00 0.00 76 1017.8
20260830152116 85 332 0.0 0.0 0.00 0.00 0.00 70 1017.6
20260830151611 84 352 0.0 0.0 0.00 0.00 0.00 72 1017.7
20260830151106 84 338 0.0 0.0 0.00 0.00 0.00 72 1017.7
20260830150606 83 344 0.0 0.0 0.00 0.00 0.00 73 1017.6
20260830150101 83 19 0.0 0.0 0.00 0.00 0.00 71 1017.7
20260830145600 83 343 0.0 0.0 0.00 0.00 0.00 80 1017.8
20260830145056 83 72 0.0 0.0 0.00 0.00 0.00 75 1017.6
20260830144552 83 342 0.0 0.0 0.00 0.00 0.00 76 1017.6
20260830144047 83 337 0.0 0.0 0.00 0.00 0.00 75 1017.8
20260830143543 82 12 0.0 0.0 0.00 0.00 0.00 75 1017.7
20260830143041 81 229 0.0 0.0 0.00 0.00 0.00 77 1017.7
20260830142536 80 40 0.0 0.0 0.00 0.00 0.00 81 1017.5
20260830142026 79 53 0.0 0.0 0.00 0.00 0.00 79 1017.6
20260830141521 79 23 0.0 0.0 0.00 0.00 0.00 80 1017.6
20260830141021 78 302 0.0 0.0 0.00 0.00 0.00 83 1017.7
20260830140515 78 300 0.0 0.0 0.00 0.00 0.00 85 1017.8
20260830140011 78 303 0.0 0.0 0.00 0.00 0.00 82 1017.7
20260830135500 77 306 0.0 0.0 0.00 0.00 0.00 88 1017.8
20260830134955 75 306 0.0 0.0 0.00 0.00 0.00 87 1017.8
20260830134450 73 306 0.0 0.0 0.00 0.00 0.00 90 1017.7
20260830133946 73 306 0.0 0.0 0.00 0.00 0.00 91 1017.8
20260830133442 75 306 0.0 0.0 0.00 0.00 0.00 88 1017.9
20260830132937 76 306 0.0 0.0 0.00 0.00 0.00 84 1018.0
20260830132433 75 305 0.0 0.0 0.00 0.00 0.00 86 1018.0
20260830131931 72 305 0.0 0.0 0.00 0.00 0.00 90 1017.9
20260830131426 70 305 0.0 0.0 0.00 0.00 0.00 93 1018.1
20260830130920 68 304 0.0 0.0 0.00 0.00 0.00 96 1018.2
20260830130416 66 303 0.0 0.0 0.00 0.00 0.00 99 1018.2
20260830125915 66 303 0.0 0.0 0.00 0.00 0.00 98 1018.4
20260830125411 66 303 0.0 0.0 0.00 0.00 0.00 98 1018.1
20260830124908 65 303 0.0 0.0 0.00 0.00 0.00 99 1018.3
20260830124403 64 303 0.0 0.0 0.00 0.00 0.00 99 1018.4
20260830123900 63 303 0.0 0.0 0.00 0.00 0.00 99 1018.3
20260830123356 63 303 0.0 0.0 0.00 0.00 0.00 99 1018.5
20260830122854 62 303 0.0 0.0 0.00 0.00 0.00 99 1018.7
20260830122349 62 303 0.0 0.0 0.00 0.00 0.00 99 1018.2
20260830121844 62 303 0.0 0.0 0.00 0.00 0.00 99 1018.3
20260830121344 61 303 0.0 0.0 0.00 0.00 0.00 99 1018.5
20260830120839 61 303 0.0 0.0 0.00 0.00 0.00 99 1018.5
20260830120334 61 303 0.0 0.0 0.00 0.00 0.00 99 1018.6
20260830115831 60 303 0.0 0.0 0.00 0.00 0.00 99 1018.4
20260830115327 60 303 0.0 0.0 0.00 0.00 0.00 99 1018.5
20260830114822 60 303 0.0 0.0 0.00 0.00 0.00 99 1018.6
20260830114318 59 303 0.0 0.0 0.00 0.00 0.00 99 1018.4
20260830113813 59 303 0.0 0.0 0.00 0.00 0.00 99 1018.3
20260830113308 59 303 0.0 0.0 0.00 0.00 0.00 99 1018.3
20260830112804 59 303 0.0 0.0 0.00 0.00 0.00 99 1018.4
20260830112259 59 303 0.0 0.0 0.00 0.00 0.00 99 1018.5
20260830111755 59 303 0.0 0.0 0.00 0.00 0.00 99 1018.3
20260830111251 58 303 0.0 0.0 0.00 0.00 0.00 99 1018.4
20260830110750 58 303 0.0 0.0 0.00 0.00 0.00 99 1018.5
20260830110247 58 303 0.0 0.0 0.00 0.00 0.00 99 1018.3
20260830105746 58 303 0.0 0.0 0.00 0.00 0.00 99 1018.0
20260830105242 58 303 0.0 0.0 0.00 0.00 0.00 99 1018.0
20260830104738 58 303 0.0 0.0 0.00 0.00 0.00 99 1018.3
20260830104235 58 303 0.0 0.0 0.00 0.00 0.00 99 1018.1
20260830103734 58 303 0.0 0.0 0.00 0.00 0.00 99 1018.1
20260830103230 58 303 0.0 0.0 0.00 0.00 0.00 99 1018.2
20260830102727 58 303 0.0 0.0 0.00 0.00 0.00 99 1018.1
20260830102223 58 303 0.0 0.0 0.00 0.00 0.00 99 1018.1
20260830101719 58 303 0.0 0.0 0.00 0.00 0.00 99 1018.2
20260830101214 58 303 0.0 0.0 0.00 0.00 0.00 99 1017.8
20260830100708 58 303 0.0 0.0 0.00 0.00 0.00 99 1018.0
20260830100203 58 303 0.0 0.0 0.00 0.00 0.00 99 1018.0
20260830095701 58 303 0.0 0.0 0.00 0.00 0.00 99 1018.2
20260830095157 58 303 0.0 0.0 0.00 0.00 0.00 99 1018.1
20260830094653 58 303 0.0 0.0 0.00 0.00 0.00 99 1018.2
20260830094143 59 303 0.0 0.0 0.00 0.00 0.00 99 1018.2
20260830093638 59 303 0.0 0.0 0.00 0.00 0.00 99 1018.1
20260830093135 59 303 0.0 0.0 0.00 0.00 0.00 99 1018.2
20260830092629 59 303 0.0 0.0 0.00 0.00 0.00 99 1018.2
20260830092127 59 303 0.0 0.0 0.00 0.00 0.00 99 1018.3
20260830091621 59 303 0.0 0.0 0.00 0.00 0.00 99 1018.2
20260830091120 59 303 0.0 0.0 0.00 0.00 0.00 99 1018.5
20260830090615 59 303 0.0 0.0 0.00 0.00 0.00 99 1018.5
20260830090110 59 303 0.0 0.0 0.00 0.00 0.00 99 1018.4
20260830085604 59 303 0.0 0.0 0.00 0.00 0.00 99 1018.5
20260830085101 59 303 0.0 0.0 0.00 0.00 0.00 99 1018.4
20260830084556 59 303 0.0 0.0 0.00 0.00 0.00 99 1018.4
20260830084056 59 303 0.0 0.0 0.00 0.00 0.00 99 1018.5
20260830083552 59 303 0.0 0.0 0.00 0.00 0.00 99 1018.3
20260830083051 59 303 0.0 0.0 0.00 0.00 0.00 99 1018.4
20260830082546 60 303 0.0 0.0 0.00 0.00 0.00 99 1018.6
20260830082042 60 303 0.0 0.0 0.00 0.00 0.00 99 1018.5
20260830081537 60 303 0.0 0.0 0.00 0.00 0.00 99 1018.4
20260830081036 60 303 0.0 0.0 0.00 0.00 0.00 99 1018.4
20260830080531 60 303 0.0 0.0 0.00 0.00 0.00 99 1018.6
20260830080026 60 303 0.0 0.0 0.00 0.00 0.00 99 1018.5
20260830075521 60 303 0.0 0.0 0.00 0.00 0.00 99 1018.4
20260830075016 60 303 0.0 0.0 0.00 0.00 0.00 99 1018.6
20260830074513 60 303 0.0 0.0 0.00 0.00 0.00 99 1018.5
20260830074008 60 303 0.0 0.0 0.00 0.00 0.00 99 1018.7
20260830073504 60 303 0.0 0.0 0.00 0.00 0.00 99 1018.5
20260830073003 60 303 0.0 0.0 0.00 0.00 0.00 99 1018.5
20260830072459 60 302 0.0 0.0 0.00 0.00 0.00 99 1018.4
20260830071954 60 302 0.0 0.0 0.00 0.00 0.00 99 1018.4
20260830071450 60 302 0.0 0.0 0.00 0.00 0.00 99 1018.6
20260830070947 60 302 0.0 0.0 0.00 0.00 0.00 99 1018.7
20260830070443 60 302 0.0 0.0 0.00 0.00 0.00 99 1018.4
20260830065941 60 302 0.0 0.0 0.00 0.00 0.00 99 1018.6
20260830065436 60 302 0.0 0.0 0.00 0.00 0.00 99 1018.7
20260830064933 60 302 0.0 0.0 0.00 0.00 0.00 99 1018.7
20260830064430 60 302 0.0 0.0 0.00 0.00 0.00 99 1018.5
20260830063929 60 302 0.0 0.0 0.00 0.00 0.00 99 1018.7
20260830063424 60 302 0.0 0.0 0.00 0.00 0.00 99 1018.8
20260830062923 60 302 0.0 0.0 0.00 0.00 0.00 99 1018.7
20260830062422 60 302 0.0 0.0 0.00 0.00 0.00 99 1018.6
20260830061917 60 302 0.0 0.0 0.00 0.00 0.00 99 1019.0
20260830061411 60 302 0.0 0.0 0.00 0.00 0.00 99 1018.8
20260830060903 60 302 0.0 0.0 0.00 0.00 0.00 99 1019.0
20260830060359 61 302 0.0 0.0 0.00 0.00 0.00 99 1019.1
20260830055854 61 302 0.0 0.0 0.00 0.00 0.00 99 1019.2
20260830055349 60 302 0.0 0.0 0.00 0.00 0.00 99 1019.2
20260830054849 61 302 0.0 0.0 0.00 0.00 0.00 99 1019.2
20260830054346 61 302 0.0 0.0 0.00 0.00 0.00 99 1019.2
20260830053836 61 302 0.0 0.0 0.00 0.00 0.00 99 1019.3
20260830053331 61 302 0.0 0.0 0.00 0.00 0.00 99 1019.3
20260830052830 61 302 0.0 0.0 0.00 0.00 0.00 99 1019.3
20260830052326 61 302 0.0 0.0 0.00 0.00 0.00 99 1019.6
20260830051821 61 302 0.0 0.0 0.00 0.00 0.00 99 1019.4
20260830051317 61 302 0.0 0.0 0.00 0.00 0.00 99 1019.2
20260830050815 61 302 0.0 0.0 0.00 0.00 0.00 99 1019.2
20260830050311 61 302 0.0 0.0 0.00 0.00 0.00 99 1019.2
20260830045808 61 302 0.0 0.0 0.00 0.00 0.00 99 1019.2
20260830045306 62 302 0.0 0.0 0.00 0.00 0.00 99 1019.3
20260830044802 62 302 0.0 0.0 0.00 0.00 0.00 99 1019.2
20260830044258 62 302 0.0 0.0 0.00 0.00 0.00 99 1018.9
20260830043753 62 302 0.0 0.0 0.00 0.00 0.00 99 1019.2
20260830043248 62 302 0.0 0.0 0.00 0.00 0.00 99 1019.0
20260830042745 62 302 0.0 0.0 0.00 0.00 0.00 99 1019.0
20260830042240 62 302 0.0 0.0 0.00 0.00 0.00 99 1019.0
20260830041739 62 302 0.0 0.0 0.00 0.00 0.00 99 1018.9
20260830041233 62 302 0.0 0.0 0.00 0.00 0.00 99 1018.9
20260830040729 62 302 0.0 0.0 0.00 0.00 0.00 99 1019.0
20260830040225 63 302 0.0 0.0 0.00 0.00 0.00 99 1019.0
20260830035723 63 302 0.0 0.0 0.00 0.00 0.00 99 1018.8
20260830035218 63 302 0.0 0.0 0.00 0.00 0.00 99 1018.8
20260830034713 63 302 0.0 0.0 0.00 0.00 0.00 99 1019.1
20260830034212 63 302 0.0 0.0 0.00 0.00 0.00 99 1018.8
20260830033708 63 302 0.0 0.0 0.00 0.00 0.00 99 1019.1
20260830033202 63 302 0.0 0.0 0.00 0.00 0.00 99 1019.0
20260830032657 64 302 0.0 0.0 0.00 0.00 0.00 99 1019.1
20260830032152 64 302 0.0 0.0 0.00 0.00 0.00 99 1019.1
20260830031647 63 302 0.0 0.0 0.00 0.00 0.00 99 1019.0
20260830031142 64 302 0.0 0.0 0.00 0.00 0.00 99 1019.2